IISEREFA2 Weather Reports


time (UTC)temp
C
wind
direction
speed
KPH
gust
KPH
rain 1hr
cm
rain 24hr
cm
rain mn
cm
humidity
%
barometer
mb
20260507080031 13 0 0.0 8.0 0.00 0.10 0.00 86 1014.4
20260507074531 12 0 1.6 6.4 0.00 0.10 0.00 89 1014.4
20260507073031 12 196 0.0 6.4 0.00 0.10 0.00 89 1014.3
20260507071530 12 196 1.6 6.4 0.00 0.10 0.00 90 1014.2
20260507070041 12 0 0.0 1.6 0.00 0.10 0.00 90 1014.0
20260507064530 11 196 0.0 3.2 0.00 0.23 0.00 95 1014.1
20260507063035 10 0 0.0 3.2 0.00 0.23 0.00 96 1013.9
20260507061537 9 0 0.0 3.2 0.00 0.23 0.00 97 1013.9
20260507060032 8 0 0.0 3.2 0.00 0.23 0.00 97 1014.1
20260507054533 8 196 0.0 3.2 0.00 0.33 0.00 97 1014.1
20260507053031 7 0 0.0 4.8 0.00 0.33 0.00 97 1013.9
20260507051532 7 0 0.0 1.6 0.00 0.33 0.00 97 1013.7
20260507050036 6 0 0.0 0.0 0.00 0.33 0.00 97 1013.7
20260507044531 6 0 0.0 1.6 0.00 0.56 0.00 96 1013.6
20260507043030 5 0 0.0 0.0 0.00 0.56 0.00 97 1013.4
20260507041530 5 0 0.0 0.0 0.00 0.56 0.00 96 1013.4
20260507040033 5 0 0.0 0.0 0.00 0.56 0.00 96 1013.5
20260507034540 5 0 0.0 0.0 0.00 0.94 0.00 96 1013.4
20260507033043 6 0 0.0 0.0 0.00 0.94 0.00 96 1013.3
20260507031545 6 0 0.0 0.0 0.00 0.94 0.00 96 1013.2
20260507030033 6 0 0.0 0.0 0.00 0.94 0.00 96 1013.2
20260507024534 6 0 0.0 0.0 0.00 1.17 0.00 96 1013.3
20260507023029 6 0 0.0 0.0 0.00 1.17 0.00 96 1013.2
20260507021533 7 0 0.0 0.0 0.00 1.17 0.00 96 1013.2
20260507020034 7 0 0.0 0.0 0.00 1.17 0.00 96 1013.0
20260507014700 7 0 0.0 0.0 0.00 1.30 0.00 96 1012.9
20260507014541 7 0 0.0 0.0 0.00 1.30 0.00 96 1012.9
20260507013038 8 0 0.0 0.0 0.00 1.30 0.00 96 1012.9
20260507011536 7 0 0.0 1.6 0.00 1.30 0.00 96 1013.0
20260507010040 7 0 0.0 0.0 0.00 1.30 0.00 96 1013.1
20260507004532 7 0 0.0 0.0 0.00 1.32 0.00 95 1013.2
20260507003031 7 0 0.0 0.0 0.00 1.32 0.00 95 1013.3
20260507001534 7 0 0.0 0.0 0.00 1.32 0.00 95 1013.2
20260507000030 8 0 0.0 0.0 0.00 1.32 0.00 95 1012.8
20260506234530 8 0 0.0 0.0 0.00 1.55 0.00 95 1012.9
20260506233030 8 0 0.0 0.0 0.00 1.55 0.00 95 1012.9
20260506231534 8 0 0.0 0.0 0.00 1.55 0.00 95 1012.9
20260506230032 8 0 0.0 0.0 0.00 1.55 0.00 95 1012.8
20260506224531 9 0 0.0 0.0 0.00 1.88 0.00 95 1012.7
20260506223032 9 0 0.0 3.2 0.00 1.88 0.00 95 1012.7
20260506221532 9 0 0.0 4.8 0.00 1.88 0.00 95 1012.8
20260506220032 9 0 0.0 1.6 0.00 1.88 0.00 95 1012.8
20260506214530 10 0 0.0 1.6 0.00 1.91 1.88 95 1012.7
20260506213032 9 196 0.0 3.2 0.00 1.91 1.88 95 1012.6
20260506211530 9 0 0.0 0.0 0.00 1.91 1.88 95 1012.5
20260506210034 10 0 0.0 0.0 0.00 1.91 1.88 95 1012.5
20260506204530 10 0 0.0 0.0 0.00 1.93 1.88 95 1012.5
20260506203038 10 0 0.0 4.8 0.00 1.93 1.88 94 1012.4
20260506201537 10 0 0.0 1.6 0.00 1.93 1.88 94 1012.0
20260506200035 10 0 0.0 0.0 0.00 1.93 1.88 93 1011.9
20260506194531 10 0 0.0 0.0 0.03 2.08 1.88 92 1011.7
20260506193030 10 0 0.0 1.6 0.03 2.08 1.88 92 1011.3
20260506191532 11 0 0.0 0.0 0.03 2.08 1.88 91 1011.3
20260506190037 11 0 0.0 0.0 0.03 2.08 1.88 91 1011.3
20260506184543 11 0 0.0 4.8 0.00 2.24 1.83 90 1011.2
20260506183032 12 0 0.0 3.2 0.00 2.24 1.83 89 1011.1
20260506181530 12 0 0.0 0.0 0.00 2.24 1.83 86 1010.8
20260506180030 12 0 0.0 0.0 0.00 2.24 1.83 83 1010.6
20260506174529 13 0 0.0 0.0 0.00 2.24 1.83 81 1010.5
20260506173040 13 0 0.0 3.2 0.00 2.24 1.83 75 1010.2
20260506171532 14 196 0.0 1.6 0.00 2.24 1.83 75 1010.0
20260506170036 13 0 0.0 3.2 0.00 2.24 1.83 77 1009.9
20260506164533 13 0 0.0 3.2 0.00 2.24 1.83 78 1009.9
20260506163036 13 0 0.0 0.0 0.00 2.24 1.83 78 1009.9
20260506161532 13 0 0.0 1.6 0.00 2.24 1.83 78 1010.0
20260506160032 13 0 0.0 6.4 0.00 2.24 1.83 75 1010.0
20260506154532 14 0 1.6 8.0 0.00 2.24 1.83 72 1010.1
20260506153030 14 198 3.2 9.7 0.00 2.24 1.83 73 1010.1
20260506151531 15 0 1.6 8.0 0.00 2.24 1.83 76 1010.3
20260506150030 14 206 3.2 9.7 0.00 2.24 1.83 79 1010.4
20260506144534 13 214 0.0 4.8 0.00 2.24 1.83 83 1010.5
20260506143033 12 215 1.6 6.4 0.00 2.24 1.83 82 1010.9
20260506141533 12 0 0.0 4.8 0.00 2.24 1.83 84 1011.1
20260506140032 12 215 0.0 4.8 0.00 2.24 1.83 84 1011.2
20260506134532 12 215 0.0 4.8 0.00 2.24 1.83 86 1011.1
20260506133032 12 0 0.0 4.8 0.05 2.24 1.83 86 1011.2
20260506131544 12 215 0.0 4.8 0.05 2.24 1.83 84 1011.3
20260506130037 11 0 0.0 0.0 0.05 2.24 1.83 86 1011.5
20260506124529 12 0 0.0 3.2 0.03 2.21 1.80 83 1011.3
20260506123031 13 215 0.0 3.2 0.00 2.16 1.78 78 1011.1
20260506121530 13 0 0.0 6.4 0.00 2.16 1.78 73 1011.1
20260506120033 14 0 1.6 6.4 0.00 2.16 1.78 72 1011.0
20260506114534 13 215 0.0 4.8 0.00 2.16 1.78 72 1010.9
20260506113030 12 0 1.6 4.8 0.00 2.16 1.78 75 1011.0
20260506111531 13 215 1.6 6.4 0.00 2.16 1.78 75 1011.0
20260506110033 13 0 1.6 6.4 0.00 2.16 1.78 76 1011.3
20260506104533 12 215 1.6 6.4 0.00 2.16 1.78 77 1011.5
20260506103038 12 0 0.0 6.4 0.00 2.16 1.78 80 1011.6
20260506101543 13 215 0.0 9.7 0.00 2.16 1.78 82 1011.7
20260506100037 12 0 0.0 4.8 0.00 2.16 1.78 85 1011.4
20260506094533 11 0 0.0 6.4 0.00 2.16 1.78 85 1011.3
20260506093039 11 0 0.0 4.8 0.00 2.16 1.78 91 1011.0
20260506091534 10 213 1.6 9.7 0.00 2.16 1.75 88 1011.0
20260506090031 11 211 0.0 8.0 0.00 2.16 1.75 91 1010.8
20260506084529 11 211 1.6 11.3 0.00 2.44 1.75 94 1010.6
20260506083033 11 197 0.0 8.0 0.00 2.44 1.75 96 1010.2
20260506081541 10 196 3.2 11.3 0.00 2.44 1.75 97 1010.1